TimePST,TemperatureF,Dew PointF,Humidity,Sea Level PressureIn,VisibilityMPH,Wind Direction,Wind SpeedMPH,Gust SpeedMPH,PrecipitationIn,Events,Conditions,WindDirDegrees,DateUTC
12:27 AM,41.0,35.6,81,29.92,10.0,Variable,3.5,-,0.00,,Overcast,0,2012-12-24 08:27:00
12:53 AM,41.0,37.0,86,29.93,10.0,SSW,3.5,-,0.01,Rain,Light Rain,200,2012-12-24 08:53:00
1:22 AM,41.0,37.4,87,29.94,10.0,Calm,Calm,-,0.01,,Overcast,0,2012-12-24 09:22:00
1:53 AM,41.0,37.0,86,29.96,10.0,Calm,Calm,-,0.01,,Overcast,0,2012-12-24 09:53:00
2:53 AM,41.0,37.0,86,29.99,10.0,SW,3.5,-,0.00,Rain,Light Rain,220,2012-12-24 10:53:00
3:27 AM,41.0,37.4,87,30.00,10.0,Calm,Calm,-,0.01,Rain,Light Rain,0,2012-12-24 11:27:00
3:53 AM,41.0,37.0,86,30.01,10.0,Calm,Calm,-,0.01,,Overcast,0,2012-12-24 11:53:00
4:53 AM,41.0,37.0,86,30.04,10.0,Calm,Calm,-,0.00,,Overcast,0,2012-12-24 12:53:00
5:08 AM,41.0,37.4,87,30.05,10.0,South,3.5,-,0.00,Rain,Light Rain,170,2012-12-24 13:08:00
5:21 AM,41.0,37.4,87,30.05,10.0,Calm,Calm,-,0.00,Rain,Light Rain,0,2012-12-24 13:21:00
5:53 AM,41.0,37.0,86,30.07,10.0,Variable,4.6,-,0.00,,Mostly Cloudy,0,2012-12-24 13:53:00
6:53 AM,39.9,37.0,89,30.09,10.0,Calm,Calm,-,N/A,,Partly Cloudy,0,2012-12-24 14:53:00
7:53 AM,39.9,37.0,89,30.12,10.0,East,3.5,-,N/A,,Overcast,80,2012-12-24 15:53:00
8:53 AM,41.0,37.0,86,30.16,10.0,Calm,Calm,-,N/A,,Overcast,0,2012-12-24 16:53:00
9:53 AM,42.1,37.9,85,30.19,10.0,Calm,Calm,-,0.01,,Overcast,0,2012-12-24 17:53:00
10:48 AM,42.8,37.4,81,30.20,10.0,ESE,3.5,-,N/A,,Overcast,120,2012-12-24 18:48:00
10:53 AM,43.0,37.9,82,30.20,10.0,SE,3.5,-,N/A,,Overcast,140,2012-12-24 18:53:00
11:09 AM,42.8,39.2,87,30.20,10.0,ESE,5.8,-,N/A,,Overcast,110,2012-12-24 19:09:00
11:13 AM,42.8,39.2,87,30.20,10.0,Calm,Calm,-,N/A,,Overcast,0,2012-12-24 19:13:00
11:32 AM,44.6,39.2,81,30.20,10.0,ESE,3.5,-,N/A,,Overcast,120,2012-12-24 19:32:00
11:44 AM,44.6,37.4,76,30.20,10.0,East,4.6,-,N/A,,Overcast,90,2012-12-24 19:44:00
11:53 AM,44.1,37.9,79,30.20,10.0,SSW,3.5,-,N/A,,Mostly Cloudy,200,2012-12-24 19:53:00
12:53 PM,45.0,36.0,71,30.21,10.0,Calm,Calm,-,N/A,,Scattered Clouds,0,2012-12-24 20:53:00
1:05 PM,44.6,37.4,76,30.20,10.0,SSE,3.5,-,N/A,,Mostly Cloudy,150,2012-12-24 21:05:00
1:24 PM,44.6,37.4,76,30.20,10.0,SSE,3.5,-,N/A,,Overcast,150,2012-12-24 21:24:00
1:53 PM,46.0,37.0,71,30.20,10.0,SSE,4.6,-,N/A,,Overcast,160,2012-12-24 21:53:00
2:00 PM,44.6,37.4,76,30.20,10.0,SSE,3.5,-,N/A,,Mostly Cloudy,150,2012-12-24 22:00:00
2:43 PM,46.4,37.4,71,30.19,10.0,SSE,3.5,-,N/A,,Overcast,160,2012-12-24 22:43:00
2:53 PM,46.0,37.9,73,30.19,10.0,South,3.5,-,N/A,,Overcast,170,2012-12-24 22:53:00
3:03 PM,46.4,37.4,71,30.19,10.0,SSE,4.6,-,N/A,,Overcast,160,2012-12-24 23:03:00
3:53 PM,45.0,36.0,71,30.18,10.0,SSE,4.6,-,N/A,,Mostly Cloudy,160,2012-12-24 23:53:00
4:53 PM,44.1,37.0,76,30.18,10.0,Calm,Calm,-,N/A,,Overcast,0,2012-12-25 00:53:00
5:53 PM,43.0,37.9,82,30.17,10.0,ESE,3.5,-,N/A,,Clear,110,2012-12-25 01:53:00
6:53 PM,43.0,37.9,82,30.15,10.0,ESE,5.8,-,N/A,,Mostly Cloudy,110,2012-12-25 02:53:00
7:53 PM,42.1,37.9,85,30.13,10.0,ESE,5.8,-,N/A,,Clear,120,2012-12-25 03:53:00
8:53 PM,42.1,37.9,85,30.10,10.0,ESE,8.1,-,N/A,,Clear,120,2012-12-25 04:53:00
9:53 PM,41.0,37.0,86,30.09,10.0,Calm,Calm,-,N/A,,Overcast,0,2012-12-25 05:53:00
10:53 PM,41.0,37.0,86,30.07,10.0,ESE,4.6,-,N/A,,Overcast,120,2012-12-25 06:53:00
11:53 PM,42.1,36.0,79,30.04,10.0,Calm,Calm,-,N/A,,Overcast,0,2012-12-25 07:53:00